CAPE
379 63 542 73 0 0 0 35 291 844 1252 1489 1670 1581 1894 2311 2218 2611 2515 2484 2501 2450 2092 2013 2218 2315 2247 2406 2600 2660 2784 2520 2390 2378 2302 2131 2015 1613 1014 882 588 380
404 230 568 280 0 0 0 15 70 1105 1156 1454 1632 1701 1736 2344 2295 2670 2597 2497 2447 2453 2153 1929 2127 2110 2186 2310 2476 2667 2701 2378 2260 2540 2430 2323 2290 2130 1742 1551 1401 1306
406 379 304 430 99 3 0 0 0 1163 1326 1448 1673 1729 1742 2190 2377 2513 2717 2588 2543 2468 2450 2152 1997 1821 2024 2084 2234 2608 2518 2332 2259 2479 2492 2273 2407 2220 2022 2178 2140 1817
454 460 265 386 326 194 38 0 0 596 1414 1488 1708 1818 1826 2082 2285 2446 2613 3094 2603 2372 2487 2266 2042 1956 1794 2287 2197 2466 2428 2248 2300 2415 2591 2417 2446 2429 2111 2141 2398 2462
627 517 406 267 322 474 356 45 0 0 994 1505 1615 1842 1846 2054 2182 2293 2459 2704 2631 2460 2318 2420 2115 2228 2027 2269 2071 2132 2437 2378 2326 2426 2537 2558 2537 2498 2386 2431 2676 2767
855 596 561 348 239 405 647 315 74 0 5 1176 1549 1745 1836 1919 2056 2196 2232 2393 2607 2519 2196 2353 2251 2256 2277 2360 2323 1974 2195 2422 2520 2447 2531 2544 2577 2588 2507 2611 2690 2752
978 804 569 492 288 197 724 693 302 200 4 88 1065 1506 1688 1803 1840 1920 2047 2027 2430 2480 2346 2257 2396 2209 2283 2435 2504 2328 2217 2340 2304 2495 2559 2491 2436 2618 2612 2603 2728 2799
992 927 748 530 412 196 265 865 769 491 203 133 263 937 1443 1528 1704 1686 1758 1847 2224 2361 2349 2352 2353 2321 2326 2268 2623 2508 2358 2407 2414 2309 2431 2618 2750 2644 2662 2601 2647 2718
972 927 841 679 455 296 194 233 865 941 681 460 350 363 994 1354 1423 1566 1570 1750 2105 2262 2297 2372 2432 2402 2397 2326 2447 2635 2567 2479 2519 2401 2337 2355 2513 2833 2807 2664 2528 2491
971 911 832 742 608 388 254 180 234 887 1111 907 697 496 476 1037 1241 1361 1461 1608 1962 2174 2233 2295 2408 2479 2447 2468 2433 2596 2667 2602 2592 2586 2499 2410 2309 2392 2775 2853 2654 2645
1012 932 847 747 649 461 338 248 186 278 979 1198 1081 876 530 599 1116 1306 1433 1539 1748 2097 2204 2231 2323 2442 2495 2525 2506 2518 2654 2658 2616 2697 2711 2592 2375 2220 2532 2437 2746 2796
1110 964 903 806 704 564 424 326 273 202 361 1089 1228 1150 904 495 778 1272 1456 1529 1594 1849 2159 2216 2263 2363 2447 2514 2549 2524 2540 2568 2531 2572 2729 2766 2608 2411 2213 2222 2213 2439
1314 1198 1024 890 813 718 552 419 366 293 250 533 1089 1200 1137 895 674 954 1453 1557 1586 1618 1843 2124 2218 2290 2373 2417 2482 2550 2554 2534 2498 2432 2452 2654 2796 2760 2678 2486 2415 2295
1508 1380 1255 1057 877 835 724 537 465 414 328 344 723 1034 1105 1051 878 726 1146 1550 1636 1621 1642 1822 2053 2182 2274 2334 2351 2433 2536 2563 2530 2482 2390 2359 2534 2710 2729 2657 2720 2734
1784 1606 1442 1336 1188 983 862 721 579 542 474 420 581 844 964 998 929 817 864 1331 1638 1704 1690 1729 1846 2015 2153 2238 2271 2279 2382 2466 2484 2492 2460 2423 2418 2484 2640 2723 2746 2837
1998 1864 1704 1581 1486 1353 1120 851 752 704 681 613 591 750 877 937 934 853 801 1035 1424 1690 1769 1810 1860 1883 2053 2183 2235 2246 2287 2370 2435 2454 2474 2473 2466 2484 2528 2620 2695 2748
2218 2088 1928 1894 1818 1677 1492 1179 919 846 840 821 758 786 871 905 926 891 835 872 1137 1468 1735 1835 1935 1957 1949 2097 2241 2270 2261 2297 2355 2411 2444 2472 2452 2448 2500 2592 2635 2605
2488 2356 2286 2234 2110 1963 1724 1481 1164 986 964 996 976 924 939 927 929 941 922 901 996 1199 1473 1710 1857 1970 2026 2037 2170 2275 2276 2230 2233 2277 2333 2375 2415 2402 2374 2403 2518 2627
2742 2679 2618 2514 2353 2142 1948 1718 1423 1095 1089 1106 1134 1086 1031 1005 953 955 1012 1028 1056 1133 1275 1479 1655 1798 1994 2077 2092 2182 2247 2197 2110 2135 2179 2249 2312 2386 2400 2338 2282 2298
2932 2883 2815 2727 2622 2476 2218 1906 1648 1367 1211 1212 1237 1212 1139 1093 1022 954 1001 1111 1191 1234 1322 1428 1548 1632 1782 1970 2078 2119 2150 2170 2079 2016 2034 2095 2161 2234 2314 2374 2368 2247
3006 2971 2926 2870 2797 2712 2551 2268 1900 1607 1329 1327 1322 1310 1250 1192 1151 1090 1037 1107 1257 1354 1398 1496 1597 1665 1706 1803 1942 2037 2059 2045 2049 1967 1954 2003 2064 2109 2152 2218 2303 2361
3080 3038 2995 2958 2926 2859 2749 2524 2159 1862 1570 1469 1404 1396 1371 1292 1248 1196 1151 1089 1235 1368 1447 1539 1666 1746 1795 1808 1858 1936 1976 1939 1889 1839 1822 1869 1988 2137 2203 2214 2182 2195
3135 3054 3066 3049 3035 2996 2927 2817 2594 2106 1770 1592 1506 1466 1466 1438 1366 1303 1207 1127 1201 1365 1456 1511 1632 1756 1870 1894 1881 1902 1953 1932 1850 1735 1672 1707 1763 1877 2092 2267 2326 2284
3257 3222 3154 3133 3106 3083 3024 2954 2837 2620 2193 1758 1668 1570 1536 1550 1478 1407 1298 1154 1084 1377 1497 1556 1602 1771 1916 1994 1976 1953 1961 1978 1954 1902 1809 1728 1773 1843 1862 1980 2262 2964
3252 3275 3260 3193 3169 3126 3095 3041 2936 2812 2629 2212 1794 1699 1616 1630 1681 1582 1448 1295 1176 1306 1557 1653 1656 1760 1970 2118 2134 2086 2043 2012 1985 1993 1990 1962 1938 2027 2074 2066 2068 2726
3216 3280 3302 3264 3212 3164 3133 3090 3000 2877 2716 2596 2182 1840 1747 1664 1763 1818 1735 1602 1428 1307 1536 1685 1767 1809 1927 2172 2296 2266 2227 2147 2101 2081 2100 2160 2208 2246 2322 2342 2318 2290
Wind_Speed
3 nan 3 nan nan nan nan nan 3 5 5 5 5 5 5 5 4 6 7 6 7 7 7 6 6 7 7 6 7 7 7 7 6 6 6 6 7 8 9 10 10 10
3 2 4 3 nan nan nan nan nan 3 5 5 5 4 3 3 5 5 6 7 7 8 7 7 7 8 7 7 7 7 7 6 6 5 5 6 7 7 8 8 9 10
4 4 2 1 nan nan nan nan nan 1 3 4 4 3 4 3 4 4 6 7 8 8 8 7 7 8 7 7 7 6 6 5 6 6 5 6 6 6 7 6 7 8
6 5 4 2 2 1 nan nan nan 0 1 2 4 4 4 4 3 4 4 7 8 8 7 7 7 7 6 6 6 6 6 6 5 4 4 5 5 4 6 5 5 8
5 6 7 5 4 2 1 nan nan nan 1 3 4 4 5 4 5 4 4 5 7 8 8 8 6 7 6 6 6 6 6 6 5 4 4 5 5 4 5 3 4 6
8 8 8 8 6 4 2 1 nan nan nan 2 4 5 5 6 6 6 5 6 6 8 8 8 7 6 6 5 5 6 5 5 5 4 5 5 6 5 5 4 4 6
7 8 7 8 8 6 4 2 1 0 nan nan 3 4 6 7 8 8 7 7 7 7 9 9 8 7 5 4 4 5 5 6 5 5 6 6 6 7 7 6 6 6
6 7 7 7 7 6 6 5 3 2 1 2 2 3 5 7 8 8 7 8 8 9 8 8 8 6 5 3 4 5 6 5 6 6 6 7 6 8 9 9 7 7
7 7 7 6 5 7 6 6 6 5 4 3 3 3 4 5 7 8 8 8 8 9 8 8 8 6 4 3 4 5 6 6 6 7 7 7 7 8 9 9 9 8
6 6 5 5 5 6 5 6 7 7 6 4 3 4 4 4 5 7 7 7 8 8 8 7 7 5 3 3 4 5 5 6 6 6 7 7 7 7 7 8 9 8
3 5 4 3 3 6 5 5 7 7 8 5 4 4 4 5 4 6 7 7 7 8 8 7 7 5 3 2 3 3 4 5 5 5 6 6 7 6 6 6 7 7
2 3 2 2 2 3 3 5 6 7 7 7 5 4 4 5 5 6 7 7 7 7 8 8 6 5 3 1 2 2 3 3 4 4 4 5 5 5 5 5 7 7
1 2 3 3 3 3 4 5 5 5 6 6 6 5 5 5 5 5 6 6 6 5 6 7 6 4 3 2 1 2 2 3 3 4 3 3 4 4 5 5 5 5
2 3 4 3 4 4 4 3 4 4 5 6 7 5 5 4 5 5 6 7 5 4 4 4 4 4 3 3 3 2 2 2 2 3 3 3 3 3 3 4 5 5
3 4 5 5 4 4 3 3 4 4 5 6 6 5 6 5 5 6 7 6 6 4 3 2 2 2 3 5 5 4 4 3 2 2 2 3 2 2 2 3 3 4
3 3 4 5 4 4 4 3 4 5 5 4 4 4 5 6 6 6 6 6 6 5 4 3 2 3 2 4 4 6 6 5 3 2 2 3 3 3 2 1 3 3
3 2 2 2 4 5 4 3 3 5 5 5 5 5 5 6 6 5 6 6 6 6 4 4 4 4 2 3 3 3 6 7 6 5 4 3 3 4 3 1 0 1
5 3 2 2 2 3 4 5 4 4 4 5 6 5 6 7 6 5 6 7 7 6 5 5 6 4 4 4 3 3 4 8 9 8 7 5 5 4 4 4 2 2
8 5 3 3 3 3 4 6 5 4 3 5 4 6 8 7 6 7 7 7 7 7 5 5 7 5 6 6 4 3 3 6 11 10 9 8 7 6 5 5 4 4
11 8 6 4 4 4 4 4 4 4 5 6 7 7 6 6 6 7 8 8 7 7 7 7 7 6 7 7 7 5 4 7 12 12 11 9 8 8 8 7 6 5
13 11 9 8 6 6 5 3 2 5 5 7 8 7 6 6 6 7 8 9 7 8 9 8 8 6 8 8 8 8 6 9 13 15 15 13 11 10 9 9 8 6
15 14 13 11 9 7 5 3 3 3 3 7 9 9 9 8 7 7 8 9 9 9 9 8 8 8 10 10 10 9 10 13 14 15 16 15 14 13 11 10 9 7
16 16 15 14 12 9 6 4 4 3 4 7 7 7 8 7 6 7 8 9 10 10 8 8 9 10 12 12 12 12 15 14 14 16 18 17 16 15 14 11 9 7
17 17 16 16 14 10 8 7 6 6 6 7 5 6 6 7 9 10 9 9 10 10 10 9 9 12 15 13 14 16 17 15 15 16 17 18 18 18 17 14 10 5
18 18 17 16 14 11 12 10 9 8 9 9 7 6 6 10 11 10 9 9 9 9 9 9 10 13 16 15 15 18 18 17 18 17 16 18 21 20 19 16 13 9
21 19 17 15 13 14 15 14 14 13 12 10 8 8 8 10 10 10 8 9 10 10 11 11 11 13 17 16 18 19 19 18 19 19 16 15 19 22 22 19 17 15
Wind_Direction
123 nan 138 nan nan nan nan nan 49 30 41 41 37 49 45 53 36 23 20 28 36 42 47 35 38 47 52 51 63 76 80 80 91 107 108 111 114 110 103 99 93 88
139 146 158 164 nan nan nan nan nan 25 25 26 29 23 38 34 32 8 4 6 13 25 36 33 23 30 37 37 50 60 78 84 87 105 102 108 111 110 103 99 96 97
173 169 152 156 nan nan nan nan nan 22 9 19 5 355 5 16 15 9 358 356 1 7 21 31 25 21 25 31 35 46 59 70 77 95 95 98 110 109 107 107 109 101
179 171 170 162 166 66 nan nan nan 202 289 312 356 352 343 346 350 358 358 357 354 357 3 15 25 22 18 22 25 39 51 57 67 82 96 113 114 107 101 106 108 107
205 186 181 179 174 161 154 nan nan nan 321 340 329 317 322 321 330 343 352 358 352 352 350 1 15 23 18 23 27 38 53 58 69 77 79 94 107 110 106 105 104 98
219 203 193 189 190 191 167 99 nan nan nan 292 334 312 321 323 323 335 348 356 353 351 351 352 7 24 19 31 45 49 51 54 61 66 75 79 96 107 115 109 100 101
246 228 207 199 195 195 197 184 189 312 nan nan 270 310 309 316 324 334 345 359 356 355 354 354 4 21 32 40 56 62 62 60 64 63 72 84 90 92 102 103 95 100
249 238 225 213 202 203 207 210 213 237 263 251 291 302 300 319 327 330 338 353 359 2 359 356 2 17 36 47 56 62 65 68 63 61 71 81 86 84 84 91 92 94
238 232 230 222 208 205 207 214 218 222 235 275 288 279 284 307 319 327 334 347 1 4 0 355 357 8 32 52 56 52 55 63 61 60 65 70 72 74 76 84 91 93
242 232 233 223 208 206 205 212 222 224 229 241 268 273 290 293 307 320 322 336 355 2 1 356 350 352 12 57 56 49 55 57 59 62 68 71 69 70 75 79 82 92
248 241 234 224 209 208 200 211 221 226 229 238 243 260 281 282 292 300 311 323 343 356 2 358 349 342 344 48 81 75 63 64 63 67 70 70 71 71 70 75 82 82
232 220 217 220 212 206 204 214 220 224 231 230 235 248 262 274 288 287 299 317 334 349 358 2 349 328 320 337 82 104 103 95 86 82 82 78 77 76 74 75 77 81
226 192 195 198 198 201 207 212 219 228 233 234 232 232 245 256 268 281 278 295 319 335 354 359 349 325 295 277 219 166 140 123 109 101 100 106 98 78 73 68 68 75
244 210 196 190 193 197 198 198 211 220 226 229 230 229 228 242 257 266 265 270 291 312 343 350 346 322 285 259 239 222 196 167 144 126 113 122 117 94 74 60 51 52
249 221 206 199 189 186 179 186 198 206 218 227 230 225 220 225 240 254 259 263 266 275 291 304 331 322 254 244 238 233 223 202 168 143 142 146 148 128 88 60 46 40
281 244 224 212 198 182 177 181 192 206 215 222 226 228 226 225 233 246 259 266 265 261 255 245 238 223 242 325 274 236 233 224 219 202 193 182 180 186 181 87 47 32
270 281 260 238 212 199 191 182 187 207 215 219 224 231 237 236 236 246 256 259 266 262 252 230 228 225 334 292 292 294 239 228 233 229 223 215 210 215 205 209 345 9
251 272 296 299 255 221 205 199 198 201 210 222 230 239 239 241 245 244 249 257 257 264 257 230 225 245 304 298 288 282 252 230 228 229 231 233 236 235 223 222 228 262
248 259 281 310 310 276 229 215 206 199 207 222 232 238 240 248 254 252 246 252 261 270 263 241 223 252 287 304 296 280 262 234 223 227 231 234 240 244 238 230 228 237
249 255 262 272 280 285 268 241 216 202 213 223 224 233 241 246 255 265 257 254 257 263 259 247 238 250 287 298 300 296 265 233 216 224 227 231 238 243 242 240 238 238
244 248 251 252 260 276 288 300 262 217 220 228 234 236 238 240 248 259 261 259 255 253 252 252 245 284 285 293 296 298 283 245 215 216 220 223 227 233 238 242 244 247
240 239 241 246 251 259 279 309 304 279 241 232 232 231 229 230 230 242 262 266 262 257 254 255 254 290 291 292 292 288 288 244 224 218 218 221 225 230 232 234 240 250
237 236 234 239 245 251 265 282 286 284 258 238 232 238 241 241 236 236 241 256 264 262 262 253 251 274 291 295 290 291 267 244 236 225 219 219 223 230 232 234 240 251
235 236 233 234 238 245 250 251 253 246 258 257 245 241 243 243 237 229 230 244 263 271 271 257 248 264 286 291 292 286 276 258 245 236 224 220 220 224 228 229 237 291
238 239 238 234 234 238 240 245 250 247 247 251 244 234 233 239 243 237 231 233 245 259 280 278 255 259 280 289 292 287 278 255 251 243 234 224 223 223 225 226 226 240
239 241 241 238 235 235 236 239 239 239 245 253 251 245 240 244 250 249 246 235 235 240 249 264 265 261 270 293 290 288 292 268 251 248 241 233 228 227 225 224 225 231